Regional Weather Roundup
Issued by NWS

Home | Current Version | Previous Version | Graphics & Text | Print | Product List | Glossary On
Versions: 1 2 3 4 5 6 7 8 9 10 11 12 13 14 15 16 17 18 19 20 21 22 23 24 25 26 27 28 29 30 31 32 33 34 35 36 37 38 39 40 41 42 43 44 45 46 47 48 49 50
000
ASUS45 KBOI 280810
RWRID

IDAHO REGIONAL WEATHER ROUNDUP
NATIONAL WEATHER SERVICE BOISE ID
200 AM MDT THU APR 28 2016

NOTE: "FAIR" INDICATES FEW OR NO CLOUDS BELOW 12000 FEET
WITH NO SIGNIFICANT WEATHER AND/OR OBSTRUCTIONS TO VISIBILITY

IDZ012-014-280900-
SOUTHWEST IDAHO


CITY           SKY/WX    TMP DP  RH WIND       PRES   REMARKS
BOISE          MOCLDY    49  42  77 NW8       29.80R
CALDWELL       MOCLDY    50  41  71 W13       29.82R
MOUNTAIN HOME  CLOUDY    48  41  76 NW10      29.79R
$$

IDZ016-017-280900-
SOUTHCENTRAL IDAHO


CITY           SKY/WX    TMP DP  RH WIND       PRES   REMARKS
BURLEY         MOCLDY    43  39  86 CALM      29.78S
JEROME         MOCLDY    44  40  85 CALM      29.79S
TWIN FALLS     CLOUDY    44  38  79 SW8       29.79S
$$

IDZ019>023-280900-
SOUTHEAST IDAHO


CITY           SKY/WX    TMP DP  RH WIND       PRES   REMARKS
IDAHO FALLS    CLEAR     34  26  72 N8        29.82S WCI  27
POCATELLO      CLOUDY    40  30  67 NE7       29.80F
REXBURG        CLEAR     39  26  59 NE13      29.82S WCI  31
$$

IDZ006-010-011-018-031-032-280900-
CENTRAL IDAHO MOUNTAINS


CITY           SKY/WX    TMP DP  RH WIND       PRES   REMARKS
MCCALL         PTCLDY    41  34  76 N8        29.85S
HAILEY         MOCLDY    39  36  87 NW6       29.83S WCI  35
STANLEY          N/A     36  33  89 CALM      29.87S
SALMON         CLOUDY    41  28  60 SW5       29.89R
CHALLIS        PTCLDY    43  28  55 N5        29.85R
$$

IDZ002-004-006-007-026-280900-
NORTHERN IDAHO


CITY           SKY/WX    TMP DP  RH WIND       PRES   REMARKS
LEWISTON       CLOUDY    54  40  59 SW5       29.91S
LOWELL           N/A     48  43  82 CALM      29.93R
COEUR D`ALENE  PTCLDY    46  41  81 NE6       29.91S
MULLAN PASS    CLEAR     33  28  81 SE5       29.95R WCI  29
$$



USA.gov is the U.S. government's official web portal to all federal, state and local government web resources and services.